Flag for Australia Weather past 2 weeks in Cairns, Queensland, Australia

Now
73 °F

Passing clouds.


Feels Like: 75 °F
Forecast: 70 / 83 °F
Wind: 8 mph from South

Location: Cairns Airport

Current Time: Sep 21, 2014 at 10:52:39 PM

Latest Report: Sep 21, 2014 at 10:00 PM


Visibility: N/A

Pressure: 30.07 "Hg

Humidity: 74%

Dew point: 64 °F

Location of CairnsLocation

Historic Weather in Cairns — Graph

°F

Cairns temperature yesterday

Maximum temperature yesterday: 86 °F (at 1:30 PM)
Minimum temperature yesterday: 64 °F (at 2:00 AM)
Average temperature yesterday: 73 °F

Past Weeks' High & Low Weather Summary

 TemperatureHumidityPressure
High86 °F (Sep 17, 1:30 PM)100% (Sep 8, 12:30 AM)30.15 "Hg (Sep 8, 12:30 AM)
Low55 °F (Sep 18, 3:30 AM)13% (Sep 17, 2:30 PM)29.89 "Hg (Sep 16, 3:30 PM)
Average73 °F68%30.01 "Hg
* Reported Sep 6 10:00 PM — Sep 21 10:00 PM, Cairns, Weather by CustomWeather, © 2014

Note: Actual official high and low records may vary slightly from our data, if they occured in-between our weather recording intervals... More about our weather records

Advertising

Cairns weather history for previous 24 hours

 ConditionsComfort  
Time TempWeatherWind HumidityBarometerVisibility
10:00 PM
Sep 21
73 °FPassing clouds.8 mph74%30.07 "HgN/A
9:00 PM73 °FPassing clouds.9 mph74%30.04 "HgN/A
8:30 PM73 °FPassing clouds.10 mph69%30.04 "HgN/A
8:00 PM73 °FPassing clouds.8 mph69%30.04 "HgN/A
7:00 PM75 °FPassing clouds.16 mph69%30.01 "HgN/A
6:30 PM75 °FPassing clouds.16 mph69%30.01 "HgN/A
6:00 PM75 °FPartly sunny.14 mph69%30.01 "HgN/A
5:30 PM77 °FPartly sunny.15 mph65%29.98 "HgN/A
5:00 PM79 °FPartly sunny.16 mph54%29.98 "HgN/A
4:30 PM79 °FPartly sunny.15 mph58%29.98 "HgN/A
4:00 PM81 °FPartly sunny.13 mph48%29.98 "HgN/A
3:30 PM81 °FPartly sunny.13 mph45%29.98 "HgN/A
3:00 PM82 °FPartly sunny.14 mph45%29.98 "HgN/A
2:00 PM82 °FPartly sunny.14 mph45%29.98 "HgN/A
1:30 PM84 °FPartly sunny.15 mph48%30.01 "HgN/A
1:00 PM82 °FPartly sunny.14 mph48%30.01 "HgN/A
12:30 PM82 °FPartly sunny.13 mph48%30.01 "HgN/A
12:00 PM82 °FPartly sunny.10 mph48%30.04 "HgN/A
11:30 AM82 °FPartly sunny.10 mph45%30.04 "HgN/A
11:00 AM82 °FPartly sunny.13 mph51%30.07 "HgN/A
10:30 AM81 °FPartly sunny.13 mph54%30.07 "HgN/A
10:00 AM82 °FPartly sunny.13 mph51%30.07 "HgN/A
9:30 AM81 °FPartly sunny.12 mph54%30.07 "HgN/A
9:00 AM79 °FPartly sunny.12 mph58%30.07 "HgN/A
8:00 AM75 °FPartly sunny.10 mph61%30.07 "HgN/A
7:30 AM73 °FPartly sunny.9 mph65%30.04 "HgN/A
7:00 AM68 °FPartly sunny.13 mph73%30.04 "HgN/A
6:00 AM72 °FOvercast.10 mph69%30.01 "HgN/A
5:30 AM66 °FClear.9 mph78%30.01 "Hg10 mi
5:00 AM66 °FPassing clouds.9 mph73%29.98 "HgN/A
4:30 AM66 °FClear.10 mph73%29.98 "Hg10 mi
4:00 AM68 °FClear.10 mph69%29.98 "Hg10 mi
11:00 PM
Sep 20
70 °FClear.7 mph78%30.04 "Hg10 mi
10:30 PM70 °FClear.7 mph78%30.04 "Hg10 mi
10:00 PM72 °FClear.6 mph73%30.04 "Hg10 mi
Weather by CustomWeather, © 2014

See weather overviewHow to use our weather pages